Time,TemperatureF,DewpointF,PressureIn,WindDirection,WindDirectionDegrees,WindSpeedMPH,WindSpeedGustMPH,Humidity,HourlyPrecipIn,Conditions,Clouds,dailyrainin,SoftwareType,DateUTC
2013-02-27 00:02:00,33.7,32.2,29.58,NW,319,5.0,5.0,94,0.00,,,0.00,Wunderground v.1.15,2013-02-27 06:02:00,
2013-02-27 00:08:00,33.7,32.2,29.58,North,355,4.0,5.0,94,0.00,,,0.00,Wunderground v.1.15,2013-02-27 06:08:00,
2013-02-27 00:14:00,33.7,32.2,29.58,NNW,346,4.0,6.0,94,0.00,,,0.00,Wunderground v.1.15,2013-02-27 06:14:00,
2013-02-27 00:21:00,33.7,32.2,29.58,North,10,4.0,6.0,94,0.00,,,0.00,Wunderground v.1.15,2013-02-27 06:21:00,
2013-02-27 00:26:00,33.7,32.2,29.58,NNW,343,4.0,4.0,94,0.00,,,0.00,Wunderground v.1.15,2013-02-27 06:26:00,
2013-02-27 00:32:00,33.7,32.2,29.58,NNW,342,3.0,5.0,94,0.00,,,0.00,Wunderground v.1.15,2013-02-27 06:32:00,
2013-02-27 00:38:00,33.6,32.1,29.58,NNW,348,4.0,4.0,94,0.00,,,0.00,Wunderground v.1.15,2013-02-27 06:38:00,
2013-02-27 00:44:00,33.5,32.0,29.59,NNW,341,4.0,4.0,94,0.00,,,0.00,Wunderground v.1.15,2013-02-27 06:44:00,
2013-02-27 00:50:00,33.5,32.0,29.59,North,360,4.0,4.0,94,0.00,,,0.00,Wunderground v.1.15,2013-02-27 06:50:00,
2013-02-27 00:56:00,33.5,32.0,29.59,North,355,4.0,5.0,94,0.00,,,0.00,Wunderground v.1.15,2013-02-27 06:56:00,
2013-02-27 01:02:00,33.4,31.9,29.59,North,360,4.0,5.0,94,0.00,,,0.00,Wunderground v.1.15,2013-02-27 07:02:00,
2013-02-27 01:08:00,33.4,31.9,29.59,NNW,329,4.0,5.0,94,0.00,,,0.00,Wunderground v.1.15,2013-02-27 07:08:00,
2013-02-27 01:14:00,33.4,31.9,29.59,NNW,327,4.0,5.0,94,0.00,,,0.00,Wunderground v.1.15,2013-02-27 07:14:00,
2013-02-27 01:20:00,33.4,31.9,29.59,NNW,329,4.0,6.0,94,0.00,,,0.00,Wunderground v.1.15,2013-02-27 07:20:00,
2013-02-27 01:26:00,33.3,32.0,29.58,NNW,337,5.0,5.0,95,0.00,,,0.00,Wunderground v.1.15,2013-02-27 07:26:00,
2013-02-27 01:32:00,33.3,32.0,29.58,North,360,5.0,6.0,95,0.00,,,0.00,Wunderground v.1.15,2013-02-27 07:32:00,
2013-02-27 01:38:00,33.3,32.0,29.58,NW,325,5.0,7.0,95,0.00,,,0.00,Wunderground v.1.15,2013-02-27 07:38:00,
2013-02-27 01:44:00,33.3,32.0,29.58,North,360,5.0,7.0,95,0.00,,,0.00,Wunderground v.1.15,2013-02-27 07:44:00,
2013-02-27 01:50:00,33.3,32.0,29.58,NNW,338,6.0,7.0,95,0.00,,,0.00,Wunderground v.1.15,2013-02-27 07:50:00,
2013-02-27 01:56:00,33.2,31.9,29.58,NNW,346,6.0,7.0,95,0.00,,,0.00,Wunderground v.1.15,2013-02-27 07:56:00,
2013-02-27 02:02:00,33.2,31.9,29.58,NNW,346,6.0,9.0,95,0.00,,,0.00,Wunderground v.1.15,2013-02-27 08:02:00,
2013-02-27 02:08:00,33.2,31.9,29.58,North,355,6.0,7.0,95,0.00,,,0.00,Wunderground v.1.15,2013-02-27 08:08:00,
2013-02-27 02:14:00,33.2,31.9,29.58,North,350,6.0,7.0,95,0.00,,,0.00,Wunderground v.1.15,2013-02-27 08:14:00,
2013-02-27 02:20:00,33.2,31.9,29.58,NNW,348,6.0,7.0,95,0.00,,,0.00,Wunderground v.1.15,2013-02-27 08:20:00,
2013-02-27 02:26:00,33.1,31.8,29.58,NW,308,6.0,6.0,95,0.00,,,0.00,Wunderground v.1.15,2013-02-27 08:26:00,
2013-02-27 02:32:00,33.1,31.8,29.58,NW,320,6.0,10.0,95,0.00,,,0.00,Wunderground v.1.15,2013-02-27 08:32:00,
2013-02-27 02:38:00,33.1,31.8,29.58,North,351,6.0,7.0,95,0.00,,,0.00,Wunderground v.1.15,2013-02-27 08:38:00,
2013-02-27 02:44:00,33.1,31.8,29.58,North,360,6.0,7.0,95,0.00,,,0.00,Wunderground v.1.15,2013-02-27 08:44:00,
2013-02-27 02:50:00,33.1,31.6,29.58,NNW,347,6.0,7.0,94,0.00,,,0.00,Wunderground v.1.15,2013-02-27 08:50:00,
2013-02-27 02:56:00,33.0,31.5,29.58,North,9,6.0,6.0,94,0.00,,,0.00,Wunderground v.1.15,2013-02-27 08:56:00,
2013-02-27 03:02:00,32.9,31.4,29.58,North,351,6.0,9.0,94,0.00,,,0.00,Wunderground v.1.15,2013-02-27 09:02:00,
2013-02-27 03:08:00,32.9,31.4,29.58,NNW,344,6.0,6.0,94,0.00,,,0.00,Wunderground v.1.15,2013-02-27 09:08:00,
2013-02-27 03:14:00,32.8,31.3,29.58,NW,325,6.0,6.0,94,0.00,,,0.00,Wunderground v.1.15,2013-02-27 09:14:00,
2013-02-27 03:19:00,32.8,31.0,29.58,NNW,335,6.0,7.0,93,0.00,,,0.00,Wunderground v.1.15,2013-02-27 09:19:00,
2013-02-27 03:25:00,32.8,31.0,29.58,North,355,7.0,8.0,93,0.00,,,0.00,Wunderground v.1.15,2013-02-27 09:25:00,
2013-02-27 03:31:00,32.7,30.9,29.58,NW,321,7.0,8.0,93,0.00,,,0.00,Wunderground v.1.15,2013-02-27 09:31:00,
2013-02-27 03:37:00,32.6,30.8,29.58,NNW,337,7.0,8.0,93,0.00,,,0.00,Wunderground v.1.15,2013-02-27 09:37:00,
2013-02-27 03:43:00,32.6,30.5,29.58,NNW,348,7.0,8.0,92,0.00,,,0.00,Wunderground v.1.15,2013-02-27 09:43:00,
2013-02-27 03:49:00,32.5,30.4,29.58,NW,326,6.0,6.0,92,0.00,,,0.00,Wunderground v.1.15,2013-02-27 09:49:00,
2013-02-27 03:54:00,32.5,30.4,29.58,NW,305,6.0,7.0,92,0.00,,,0.00,Wunderground v.1.15,2013-02-27 09:54:00,
2013-02-27 04:01:00,32.5,30.4,29.59,NNW,340,6.0,7.0,92,0.00,,,0.00,Wunderground v.1.15,2013-02-27 10:01:00,
2013-02-27 04:07:00,32.4,30.3,29.59,NNW,333,6.0,6.0,92,0.00,,,0.00,Wunderground v.1.15,2013-02-27 10:07:00,
2013-02-27 04:12:00,32.4,30.3,29.59,NNW,335,7.0,8.0,92,0.00,,,0.00,Wunderground v.1.15,2013-02-27 10:12:00,
2013-02-27 04:19:00,32.4,30.3,29.59,NNW,330,7.0,7.0,92,0.00,,,0.00,Wunderground v.1.15,2013-02-27 10:19:00,
2013-02-27 04:24:00,32.3,30.2,29.59,NNW,348,6.0,7.0,92,0.00,,,0.00,Wunderground v.1.15,2013-02-27 10:24:00,
2013-02-27 04:31:00,32.3,30.2,29.60,NNW,340,5.0,6.0,92,0.00,,,0.00,Wunderground v.1.15,2013-02-27 10:31:00,
2013-02-27 04:37:00,32.3,30.2,29.60,NNW,339,4.0,4.0,92,0.00,,,0.00,Wunderground v.1.15,2013-02-27 10:37:00,
2013-02-27 04:42:00,32.3,30.2,29.61,NW,318,3.0,4.0,92,0.00,,,0.00,Wunderground v.1.15,2013-02-27 10:42:00,
2013-02-27 04:49:00,32.2,30.1,29.61,NW,321,3.0,4.0,92,0.00,,,0.00,Wunderground v.1.15,2013-02-27 10:49:00,
2013-02-27 04:54:00,32.2,30.1,29.61,West,273,3.0,4.0,92,0.00,,,0.00,Wunderground v.1.15,2013-02-27 10:54:00,
2013-02-27 05:01:00,32.2,30.4,29.61,WNW,288,3.0,3.0,93,0.00,,,0.00,Wunderground v.1.15,2013-02-27 11:01:00,
2013-02-27 05:06:00,32.1,30.3,29.61,WSW,255,2.0,3.0,93,0.00,,,0.00,Wunderground v.1.15,2013-02-27 11:06:00,
2013-02-27 05:12:00,32.1,30.3,29.61,West,279,3.0,5.0,93,0.00,,,0.00,Wunderground v.1.15,2013-02-27 11:12:00,
2013-02-27 05:18:00,32.0,30.2,29.61,NW,314,3.0,5.0,93,0.00,,,0.00,Wunderground v.1.15,2013-02-27 11:18:00,
2013-02-27 05:24:00,31.9,30.1,29.61,West,277,4.0,6.0,93,0.00,,,0.00,Wunderground v.1.15,2013-02-27 11:24:00,
2013-02-27 05:31:00,31.9,30.1,29.61,North,360,4.0,6.0,93,0.00,,,0.00,Wunderground v.1.15,2013-02-27 11:31:00,
2013-02-27 05:36:00,31.9,30.1,29.61,NNW,346,5.0,5.0,93,0.00,,,0.00,Wunderground v.1.15,2013-02-27 11:36:00,
2013-02-27 05:42:00,31.9,30.1,29.61,NNW,330,5.0,7.0,93,0.00,,,0.00,Wunderground v.1.15,2013-02-27 11:42:00,
2013-02-27 05:48:00,31.8,30.0,29.61,West,279,5.0,5.0,93,0.00,,,0.00,Wunderground v.1.15,2013-02-27 11:48:00,
2013-02-27 05:54:00,31.7,29.6,29.61,NW,325,6.0,8.0,92,0.00,,,0.00,Wunderground v.1.15,2013-02-27 11:54:00,
2013-02-27 06:01:00,31.6,29.5,29.61,NNW,339,7.0,8.0,92,0.00,,,0.00,Wunderground v.1.15,2013-02-27 12:01:00,
2013-02-27 06:06:00,31.6,29.8,29.61,NNW,348,7.0,7.0,93,0.00,,,0.00,Wunderground v.1.15,2013-02-27 12:06:00,
2013-02-27 06:12:00,31.5,29.7,29.62,NW,318,7.0,7.0,93,0.00,,,0.00,Wunderground v.1.15,2013-02-27 12:12:00,
2013-02-27 06:18:00,31.4,29.6,29.61,NNW,328,6.0,6.0,93,0.00,,,0.00,Wunderground v.1.15,2013-02-27 12:18:00,
2013-02-27 06:24:00,31.4,29.6,29.61,NW,321,7.0,13.0,93,0.00,,,0.00,Wunderground v.1.15,2013-02-27 12:24:00,
2013-02-27 06:31:00,31.3,29.5,29.61,NNW,341,7.0,9.0,93,0.00,,,0.00,Wunderground v.1.15,2013-02-27 12:31:00,
2013-02-27 06:36:00,31.2,29.4,29.61,NNW,336,7.0,8.0,93,0.00,,,0.00,Wunderground v.1.15,2013-02-27 12:36:00,
2013-02-27 06:42:00,31.2,29.4,29.61,North,350,6.0,8.0,93,0.00,,,0.00,Wunderground v.1.15,2013-02-27 12:42:00,
2013-02-27 06:48:00,31.1,29.3,29.62,NW,325,6.0,8.0,93,0.00,,,0.00,Wunderground v.1.15,2013-02-27 12:48:00,
2013-02-27 06:54:00,31.1,29.3,29.62,NNW,338,6.0,10.0,93,0.00,,,0.00,Wunderground v.1.15,2013-02-27 12:54:00,
2013-02-27 07:00:00,31.1,29.3,29.62,North,350,7.0,7.0,93,0.00,,,0.00,Wunderground v.1.15,2013-02-27 13:00:00,
2013-02-27 07:06:00,31.1,29.3,29.62,NNW,329,6.0,6.0,93,0.00,,,0.00,Wunderground v.1.15,2013-02-27 13:06:00,
2013-02-27 07:12:00,31.1,29.3,29.62,NW,315,6.0,6.0,93,0.00,,,0.00,Wunderground v.1.15,2013-02-27 13:12:00,
2013-02-27 07:18:00,31.1,29.3,29.62,NW,318,6.0,6.0,93,0.00,,,0.00,Wunderground v.1.15,2013-02-27 13:18:00,
2013-02-27 07:24:00,31.1,29.3,29.63,North,350,6.0,6.0,93,0.00,,,0.00,Wunderground v.1.15,2013-02-27 13:24:00,
2013-02-27 07:30:00,31.1,29.0,29.63,NNW,345,7.0,7.0,92,0.00,,,0.00,Wunderground v.1.15,2013-02-27 13:30:00,
2013-02-27 07:36:00,31.1,29.0,29.63,North,360,6.0,6.0,92,0.00,,,0.00,Wunderground v.1.15,2013-02-27 13:36:00,
2013-02-27 07:42:00,31.1,29.0,29.63,North,351,6.0,10.0,92,0.00,,,0.00,Wunderground v.1.15,2013-02-27 13:42:00,
2013-02-27 07:48:00,31.1,29.0,29.64,NNW,344,7.0,7.0,92,0.00,,,0.00,Wunderground v.1.15,2013-02-27 13:48:00,
2013-02-27 07:54:00,31.1,28.8,29.64,North,355,7.0,7.0,91,0.00,,,0.00,Wunderground v.1.15,2013-02-27 13:54:00,
2013-02-27 08:00:00,31.1,28.8,29.64,North,350,7.0,7.0,91,0.00,,,0.00,Wunderground v.1.15,2013-02-27 14:00:00,
2013-02-27 08:06:00,31.2,28.9,29.64,NNW,332,7.0,7.0,91,0.00,,,0.00,Wunderground v.1.15,2013-02-27 14:06:00,
2013-02-27 08:12:00,31.2,28.9,29.64,NW,311,7.0,9.0,91,0.00,,,0.00,Wunderground v.1.15,2013-02-27 14:12:00,